Regional Weather Roundup
Issued by NWS Green Bay, WI

Home | Current Version | Previous Version | Text Only | Print | Product List | Glossary On
Versions: 1 2 3 4 5 6 7 8 9 10 11 12 13 14 15 16 17 18 19 20 21 22 23 24 25 26 27 28 29 30 31 32 33 34 35 36 37 38 39 40 41 42 43 44 45 46 47 48 49 50
000
ASUS43 KGRB 200859
RWRGRB

NORTH-CENTRAL AND NORTHEAST WISCONSIN REGIONAL WEATHER ROUNDUP
NATIONAL WEATHER SERVICE GREEN BAY WI
400 AM CDT MON OCT 20 2014

WIZ005-009-010>012-018-019-201000-
NORTH CENTRAL WISCONSIN

CITY           SKY/WX    TMP DP  RH WIND       PRES   REMARKS
IRONWOOD       CLOUDY    46  43  87 NW7       29.80R
MANITOWISH WTR NOT AVBL
ARBOR VITAE    NOT AVBL
EAGLE RIVER    NOT AVBL
LAND O LAKES   NOT AVBL
RHINELANDER    CLOUDY    46  42  86 NW6       29.79R
PHILLIPS       NOT AVBL
ANTIGO         NOT AVBL
TOMAHAWK       NOT AVBL
MERRILL        NOT AVBL
$$

WIZ013-073-201000-
NORTHEAST WISCONSIN

CITY           SKY/WX    TMP DP  RH WIND       PRES   REMARKS
IRON MOUNTAIN  CLOUDY    40  39  97 CALM      29.74R FOG
MARINETTE      PTCLDY    46  43  87 CALM      29.73S
$$

WIZ017-030-035>037-045-201000-
CENTRAL WISCONSIN

CITY           SKY/WX    TMP DP  RH WIND       PRES   REMARKS
MEDFORD        NOT AVBL
WAUSAU         CLEAR     42  41  96 NW5       29.78R
MOSINEE        NOT AVBL
MARSHFIELD     CLEAR     48  43  82 NW15      29.80R
WISC RAPIDS    PTCLDY    40  38  93 NW7       29.80R
STEVENS POINT  NOT AVBL
WAUPACA        NOT AVBL
SHAWANO        NOT AVBL
CLINTONVILLE   NOT AVBL
$$

WIZ038-039-048-051-201000-
FOX VALLEY

CITY           SKY/WX    TMP DP  RH WIND       PRES   REMARKS
NWS GREEN BAY  CLEAR     44  42  93 SW3       29.76R
APPLETON       NOT AVBL
OSHKOSH        CLEAR     47  42  83 W5        29.76S
FOND DU LAC    CLEAR     46  41  82 CALM      29.77S
$$

WIZ022-050-052-201000-
EAST CENTRAL WISCONSIN

CITY           SKY/WX    TMP DP  RH WIND       PRES   REMARKS
STURGEON BAY   CLEAR     46  43  87 W6        29.74F
MANITOWOC      NOT AVBL
SHEBOYGAN      CLEAR     45  41  86 W6        29.76F
$$

LMZ563-521-522-541>543-201000-
LAKESHORE

STATION/POSITION TIME  TEMP    WIND        PRES    VSBY  WAVE
                       AIR SEA DIR/SP/G                  HT/PER
                 (UTC) (F)     (DEG/KT/KT) (MB)    (MI)  (FT/S)
SHEBOYGAN LKSHOR 0800   52 51  260/ 10/ 12 1008.0F
KEWAUNEE LKSHORE 0800   46     290/  7/  8 1006.2F
NORTHPORT PIER   0800   53     230/  5/  9 1007.1S
N MID LAKE BUOY  0800   52 52  240/ 14/ 16 1006.9R         6/ 7
CHAMBERS ISLAND  0800   51     240/  2/  5 1007.5R
MENOMINEE LKSHOR 0800   49     270/  4/  7 1007.7R
$$



USA.gov is the U.S. government's official web portal to all federal, state and local government web resources and services.